• In Uzbekistan
  • List of Countries
  • For 7 days
  • Water Temperature
  • Satellite Maps
  • Weather Map
  • Weather Widgets
  • user-avatar
    Login

    Hourly Weather Luanda

    Today, 16 January, Monday

    Time Temperature Precipitation Wind Pressure Humidity
    00:00 +27°C° 0 mm 3 mps 752 mmHg 85%
    01:00 +26°C° 0 mm 3 mps 752 mmHg 86%
    02:00 +26°C° 0 mm 2 mps 752 mmHg 86%
    03:00 +26°C° 0 mm 2 mps 752 mmHg 86%
    04:00 +26°C° 0 mm 2 mps 752 mmHg 86%
    05:00 +27°C° 0 mm 2 mps 752 mmHg 84%
    06:00 +27°C° 0 mm 2 mps 752 mmHg 81%
    07:00 +27°C° 0 mm 2 mps 752 mmHg 79%
    08:00 +29°C° 0 mm 1 mps 752 mmHg 70%
    09:00 +31°C° 0 mm 1 mps 753 mmHg 61%
    10:00 +34°C° 0 mm 1 mps 753 mmHg 51%
    11:00 +36°C° 0 mm 2 mps 752 mmHg 45%
    12:00 +38°C° 0 mm 2 mps 751 mmHg 39%
    13:00 +39°C° 0 mm 3 mps 751 mmHg 33%
    14:00 +38°C° 0 mm 4 mps 750 mmHg 36%
    15:00 +39°C° 0 mm 5 mps 750 mmHg 39%
    16:00 +38°C° 0 mm 6 mps 749 mmHg 42%
    17:00 +34°C° 0 mm 5 mps 750 mmHg 51%
    18:00 +32°C° 0 mm 5 mps 750 mmHg 60%
    19:00 +29°C° 0 mm 5 mps 750 mmHg 69%
    20:00 +28°C° 0 mm 4 mps 751 mmHg 73%
    21:00 +28°C° 0 mm 4 mps 752 mmHg 76%
    22:00 +27°C° 0 mm 3 mps 752 mmHg 80%
    23:00 +27°C° 0 mm 3 mps 752 mmHg 82%

    Tomorrow, 17 January, Tuesday

    Time Temperature Precipitation Wind Pressure Humidity
    00:00 +27°C° 0 mm 3 mps 752 mmHg 84%
    01:00 +26°C° 0 mm 2 mps 752 mmHg 86%
    02:00 +26°C° 0 mm 3 mps 752 mmHg 87%
    03:00 +26°C° 0 mm 3 mps 751 mmHg 88%
    04:00 +26°C° 0 mm 3 mps 751 mmHg 89%
    05:00 +26°C° 0 mm 3 mps 752 mmHg 87%
    06:00 +26°C° 0 mm 2 mps 752 mmHg 85%
    07:00 +26°C° 0 mm 2 mps 752 mmHg 83%
    08:00 +29°C° 0 mm 2 mps 752 mmHg 70%
    09:00 +32°C° 0 mm 1 mps 752 mmHg 57%
    10:00 +35°C° 0 mm 1 mps 752 mmHg 44%
    11:00 +36°C° 0 mm 2 mps 752 mmHg 41%
    12:00 +37°C° 0 mm 3 mps 752 mmHg 39%
    13:00 +38°C° 0 mm 4 mps 751 mmHg 37%
    14:00 +37°C° 0 mm 5 mps 751 mmHg 41%
    15:00 +35°C° 0 mm 5 mps 750 mmHg 45%
    16:00 +34°C° 0 mm 6 mps 749 mmHg 50%
    17:00 +33°C° 0 mm 6 mps 750 mmHg 57%
    18:00 +30°C° 0 mm 5 mps 751 mmHg 65%
    19:00 +28°C° 0 mm 5 mps 751 mmHg 72%
    20:00 +28°C° 0 mm 4 mps 752 mmHg 75%
    21:00 +27°C° 0 mm 4 mps 752 mmHg 78%
    22:00 +27°C° 0 mm 4 mps 753 mmHg 82%
    23:00 +27°C° 0 mm 4 mps 753 mmHg 82%

    Day after tomorrow, 18 January, Wednesday

    Time Temperature Precipitation Wind Pressure Humidity
    00:00 +27°C° 0 mm 4 mps 753 mmHg 83%
    01:00 +27°C° 0 mm 4 mps 752 mmHg 84%
    02:00 +27°C° 0 mm 3 mps 752 mmHg 82%
    03:00 +27°C° 0 mm 3 mps 752 mmHg 80%
    04:00 +27°C° 0 mm 3 mps 752 mmHg 78%
    05:00 +27°C° 0 mm 3 mps 752 mmHg 77%
    06:00 +27°C° 0 mm 3 mps 753 mmHg 76%
    07:00 +27°C° 0 mm 3 mps 753 mmHg 75%
    08:00 +29°C° 0 mm 2 mps 753 mmHg 66%
    09:00 +31°C° 0 mm 2 mps 754 mmHg 57%
    10:00 +34°C° 0 mm 2 mps 754 mmHg 49%
    11:00 +35°C° 0 mm 3 mps 753 mmHg 44%
    12:00 +36°C° 0 mm 3 mps 753 mmHg 40%
    13:00 +37°C° 0 mm 4 mps 752 mmHg 36%
    14:00 +36°C° 0 mm 4 mps 752 mmHg 42%
    15:00 +35°C° 0 mm 4 mps 751 mmHg 48%
    16:00 +33°C° 0 mm 5 mps 751 mmHg 53%
    17:00 +32°C° 0 mm 4 mps 751 mmHg 58%
    18:00 +30°C° 0 mm 4 mps 752 mmHg 63%
    19:00 +28°C° 0 mm 3 mps 752 mmHg 68%
    20:00 +28°C° 0 mm 3 mps 753 mmHg 70%
    21:00 +27°C° 0 mm 3 mps 753 mmHg 72%
    22:00 +27°C° 0 mm 3 mps 754 mmHg 75%
    23:00 +27°C° 0 mm 2 mps 753 mmHg 75%

    19 January, Thursday

    Time Temperature Precipitation Wind Pressure Humidity
    00:00 +26°C° 0 mm 2 mps 753 mmHg 76%
    01:00 +26°C° 0 mm 2 mps 752 mmHg 77%
    02:00 +26°C° 0 mm 2 mps 752 mmHg 78%
    03:00 +26°C° 0 mm 2 mps 752 mmHg 78%
    04:00 +26°C° 0 mm 2 mps 752 mmHg 79%
    05:00 +26°C° 0 mm 3 mps 752 mmHg 77%
    06:00 +26°C° 0 mm 3 mps 752 mmHg 76%
    07:00 +26°C° 0 mm 4 mps 753 mmHg 75%
    08:00 +28°C° 0 mm 3 mps 753 mmHg 68%
    09:00 +29°C° 0 mm 2 mps 753 mmHg 61%
    10:00 +30°C° 0 mm 2 mps 754 mmHg 54%
    11:00 +32°C° 0 mm 2 mps 753 mmHg 47%
    12:00 +35°C° 0 mm 2 mps 752 mmHg 40%
    13:00 +37°C° 0 mm 2 mps 752 mmHg 33%
    14:00 +37°C° 0 mm 3 mps 751 mmHg 34%
    15:00 +36°C° 0 mm 4 mps 751 mmHg 36%
    16:00 +36°C° 0 mm 4 mps 750 mmHg 38%
    17:00 +34°C° 0 mm 4 mps 751 mmHg 47%
    18:00 +32°C° 0 mm 4 mps 751 mmHg 57%
    19:00 +29°C° 0 mm 4 mps 752 mmHg 67%
    20:00 +28°C° 0 mm 4 mps 752 mmHg 70%
    21:00 +28°C° 0 mm 3 mps 753 mmHg 73%
    22:00 +27°C° 0 mm 3 mps 753 mmHg 76%
    23:00 +27°C° 0 mm 3 mps 753 mmHg 78%

    20 January, Friday

    Time Temperature Precipitation Wind Pressure Humidity
    00:00 +27°C° 0 mm 2 mps 753 mmHg 81%
    01:00 +26°C° 0 mm 2 mps 752 mmHg 83%
    02:00 +26°C° 0 mm 2 mps 752 mmHg 85%
    03:00 +26°C° 0 mm 2 mps 752 mmHg 86%
    04:00 +25°C° 0 mm 2 mps 752 mmHg 88%
    05:00 +26°C° 0 mm 2 mps 752 mmHg 85%
    06:00 +26°C° 0 mm 1 mps 753 mmHg 82%
    07:00 +27°C° 0 mm 1 mps 753 mmHg 80%
    08:00 +29°C° 0 mm 1 mps 754 mmHg 70%
    09:00 +31°C° 0 mm 1 mps 754 mmHg 61%
    10:00 +33°C° 0 mm 1 mps 754 mmHg 51%
    11:00 +35°C° 0 mm 2 mps 753 mmHg 47%
    12:00 +36°C° 0 mm 2 mps 753 mmHg 43%
    13:00 +37°C° 0 mm 3 mps 752 mmHg 39%
    14:00 +37°C° 0 mm 4 mps 751 mmHg 43%
    15:00 +36°C° 0 mm 4 mps 751 mmHg 46%
    16:00 +35°C° 0 mm 5 mps 750 mmHg 50%
    17:00 +33°C° 0 mm 5 mps 751 mmHg 57%
    18:00 +30°C° 0 mm 5 mps 751 mmHg 64%
    19:00 +29°C° 0 mm 5 mps 752 mmHg 72%
    20:00 +28°C° 0 mm 4 mps 752 mmHg 76%
    21:00 +28°C° 0 mm 4 mps 753 mmHg 79%
    22:00 +27°C° 0 mm 4 mps 753 mmHg 83%
    23:00 +27°C° 0 mm 3 mps 753 mmHg 85%

    21 January, Saturday

    Time Temperature Precipitation Wind Pressure Humidity
    00:00 +27°C° 0 mm 3 mps 752 mmHg 86%
    01:00 +26°C° 0 mm 3 mps 752 mmHg 88%
    02:00 +26°C° 0 mm 3 mps 752 mmHg 87%
    03:00 +27°C° 0 mm 3 mps 752 mmHg 86%
    04:00 +27°C° 0 mm 3 mps 751 mmHg 84%
    05:00 +27°C° 0 mm 2 mps 752 mmHg 83%
    06:00 +27°C° 0 mm 2 mps 753 mmHg 82%
    07:00 +27°C° 0 mm 2 mps 753 mmHg 81%
    08:00 +30°C° 0 mm 1 mps 753 mmHg 69%
    09:00 +32°C° 0 mm 1 mps 754 mmHg 58%
    10:00 +33°C° 0 mm 0 mps 754 mmHg 46%
    11:00 +35°C° 0 mm 1 mps 753 mmHg 43%
    12:00 +37°C° 0 mm 2 mps 752 mmHg 41%
    13:00 +38°C° 0 mm 4 mps 752 mmHg 38%
    14:00 +37°C° 0 mm 4 mps 751 mmHg 42%
    15:00 +36°C° 0 mm 4 mps 751 mmHg 46%
    16:00 +35°C° 0 mm 5 mps 750 mmHg 49%
    17:00 +33°C° 0 mm 5 mps 750 mmHg 56%
    18:00 +30°C° 0 mm 5 mps 751 mmHg 63%
    19:00 +29°C° 0 mm 4 mps 751 mmHg 69%
    20:00 +28°C° 0 mm 4 mps 752 mmHg 74%
    21:00 +28°C° 0 mm 4 mps 752 mmHg 78%
    22:00 +27°C° 0 mm 4 mps 753 mmHg 82%
    23:00 +27°C° 0 mm 3 mps 753 mmHg 84%
    Show more